User: anonymous   Login
Location: Ash Swamp
(41.5170°N, 74.6157°W)
Time: 13:28:06
(UTC+00:00)
Language:

Cosmos 2082 Rocket - Orbit

View from above orbital plane
View from above orbital plane
View from above satellite
View from above satellite

Ground track
Ground track

The orbit data is extracted from the following two-line orbital elements,

1 20625U 90046B   20271.89283486 -.00000290 +00000-0 -12590-3 0  9997
2 20625 070.9991 153.1850 0011800 084.9387 275.3082 14.14659131567105
Epoch (UTC): 27 September 2020 21:25:40
Eccentricity: 0.0011800
inclination: 70.9991°
perigee height: 835 km
apogee height: 852 km
right ascension of ascending node: 153.1850°
argument of perigee: 84.9387°
revolutions per day: 14.14659131
mean anomaly at epoch: 275.3082°
orbit number at epoch: 56710

The dashed part of the orbit path shows where the satellite is in the earth's shadow,  

DLR